Regional Weather Roundup
Issued by NWS State College, PA

Home | Current Version | Previous Version | Graphics & Text | Print | Product List | Glossary On
Versions: 1 2 3 4 5 6 7 8 9 10 11 12 13 14 15 16 17 18 19 20 21 22 23 24 25 26 27 28 29 30 31 32 33 34 35 36 37 38 39 40 41 42 43 44 45 46 47 48 49 50
000
ASUS41 KCTP 230910
RWRCTP

REGIONAL WEATHER ROUNDUP
NATIONAL WEATHER SERVICE STATE COLLEGE PA
500 AM EDT WED AUG 23 2017

Note: "fair" indicates few or no clouds below 12,000 feet with no
significant weather and/or obstructions to visibility.

* = STATION THAT DOES NOT REPORT PRECIPITATION /E.G. RAIN...SNOW...ETC/
    THUNDER OR FOG.

PAZ002>004-007>009-013>016-020>023-029>032-231000-
WESTERN PENNSYLVANIA

CITY           SKY/WX    TMP DP  RH WIND       PRES   REMARKS
ERIE           PTCLDY    67  54  63 NW8       29.89R
MEADVILLE      PTCLDY    61  56  83 NW3       29.92R
FRANKLIN*      CLOUDY    57  55  94 SW6       29.93R VSB 1/4
NEW CASTLE     PTSUNNY   61  61 100 CALM      29.93R
BEAVER COUNTY  NOT AVBL
BUTLER*        FOG       63  61  94 CALM      29.93R VSB 3/4
PITTSBURGH INT CLOUDY    65  64  97 NW6       29.92R
PITTSBURGH     CLOUDY    65  61  87 NW3       29.91R
INDIANA*       MOCLDY    64  64 100 CALM      29.94R FOG
LATROBE        CLOUDY    64  64 100 CALM      29.92R
WASHINGTON CO* CLOUDY    64  61  88 CALM      29.92S
$$

PAZ004>006-010>012-017>019-024>028-033>037-041-042-045-046-049>053-231000-
CENTRAL PENNSYLVANIA

CITY           SKY/WX    TMP DP  RH WIND       PRES   REMARKS
BRADFORD       FOG       52  52 100 CALM      29.91S VSB 1/4
DUBOIS         CLOUDY    59  57  93 NW5       29.90S
CLEARFIELD     FOG       61  61 100 N3        29.90R VSB 1/2
JOHNSTOWN      CLOUDY    64  62  93 NW7       29.93R
ALTOONA        MOCLDY    66  61  84 N6        29.90R
STATE COLLEGE  CLOUDY    65  61  88 CALM      29.87S
WILLIAMSPORT   MOCLDY    67  61  81 W6        29.83R
SELINSGROVE    CLOUDY    70  65  84 NW7       29.83R
FT INDIANTOWN  MOCLDY    73  66  80 W7        29.81R
CAPITAL CITY   MOCLDY    74  69  85 W5        29.82R
HARRISBURG     CLOUDY    74  72  93 NW7       29.80R
YORK           CLOUDY    72  71  97 CALM      29.82R
$$

PAZ038>040-043-044-047-048-054-055-060>062-067>071-231000-
EASTERN PENNSYLVANIA

CITY           SKY/WX    TMP DP  RH WIND       PRES   REMARKS
SCRANTON       CLOUDY    67  60  78 VRB3      29.84R THUNDER
MOUNT POCONO   PTCLDY    65  65 100 NW12G21   29.84R
ALLENTOWN      MOCLDY    73  70  90 W6        29.79R
QUAKERTOWN*    CLOUDY    72  72 100 CALM      29.80R
READING        MOCLDY    73  72  96 W3        29.79R
LANCASTER      CLOUDY    73  72  96 W7        29.81R
COATESVILLE    CLOUDY    72  72 100 W5        29.82S
POTTSTOWN      CLOUDY    71  71 100 CALM      29.81R
BLUE BELL      CLOUDY    72  72 100 CALM      29.80R
DOYLESTOWN     MOCLDY    72  71  97 SW5       29.78S
WILLOW GROVE   NOT AVBL
NORTH PHILA    CLOUDY    76  71  85 SW3       29.79S
PHILADELPHIA   CLOUDY    76  72  87 SW6       29.79R
$$



USA.gov is the U.S. government's official web portal to all federal, state and local government web resources and services.